Flag for Brazil Weather past 2 weeks in Salvador, Bahia, Brazil

Now
77 °F

Passing clouds.


Feels Like: 79 °F
Forecast: 74 / 81 °F
Wind: 10 mph from East

Location: Salvador Aeroporto

Current Time: Oct 1, 2014 at 9:57:13 PM

Latest Report: Oct 1, 2014 at 9:00 PM


Visibility: N/A

Pressure: 29.98 "Hg

Humidity: 79%

Dew point: 70 °F

Location of SalvadorLocation

Historic Weather in Salvador — Graph

°F

Salvador temperature yesterday

Maximum temperature yesterday: 82 °F (at 11:00 AM)
Minimum temperature yesterday: 73 °F (at 5:00 AM)
Average temperature yesterday: 78 °F

Past Weeks' High & Low Weather Summary

 TemperatureHumidityPressure
High88 °F (Sep 22, 11:00 AM)100% (Sep 25, 7:00 AM)30.12 "Hg (Sep 25, 7:00 AM)
Low36 °F (Sep 25, 7:00 AM)55% (Sep 22, 11:00 AM)29.89 "Hg (Sep 21, 2:00 PM)
Average77 °F76%30.02 "Hg
* Reported Sep 16 9:00 PM — Oct 1 9:00 PM, Salvador, Weather by CustomWeather, © 2014

Note: Actual official high and low records may vary slightly from our data, if they occured in-between our weather recording intervals... More about our weather records

Advertising

Salvador weather history for previous 24 hours

 ConditionsComfort  
Time TempWeatherWind HumidityBarometerVisibility
9:00 PM
Oct 1
77 °FPassing clouds.10 mph79%29.98 "HgN/A
8:00 PM75 °FPassing clouds.8 mph78%29.98 "HgN/A
7:00 PM77 °FPassing clouds.9 mph74%29.95 "HgN/A
6:00 PM77 °FPassing clouds.9 mph74%29.95 "HgN/A
5:00 PM79 °FPassing clouds.9 mph70%29.95 "HgN/A
4:00 PM81 °FScattered clouds.10 mph66%29.95 "HgN/A
3:00 PM81 °FPassing clouds.14 mph66%29.95 "HgN/A
2:00 PM82 °FPassing clouds.13 mph66%29.95 "HgN/A
1:00 PM81 °FScattered clouds.14 mph66%29.98 "HgN/A
12:00 PM81 °FScattered clouds.13 mph66%30.01 "HgN/A
11:00 AM82 °FScattered clouds.10 mph66%30.01 "HgN/A
10:00 AM81 °FScattered clouds.10 mph66%30.04 "HgN/A
9:00 AM81 °FScattered clouds.8 mph66%30.04 "HgN/A
8:00 AM81 °FScattered clouds.9 mph66%30.04 "HgN/A
7:00 AM79 °FScattered clouds.9 mph70%30.01 "HgN/A
6:00 AM72 °FScattered clouds.2 mph83%30.01 "HgN/A
5:00 AM75 °FPassing clouds.8 mph78%29.98 "HgN/A
4:00 AM75 °FPassing clouds.8 mph78%29.98 "HgN/A
3:00 AM75 °FPassing clouds.8 mph74%29.95 "HgN/A
2:00 AM75 °FPassing clouds.12 mph78%29.95 "HgN/A
1:00 AM75 °FPassing clouds.10 mph78%29.98 "HgN/A
12:00 AM75 °FPassing clouds.12 mph78%29.98 "HgN/A
11:00 PM
Sep 30
75 °FPassing clouds.12 mph78%30.01 "HgN/A
10:00 PM75 °FPassing clouds.13 mph78%30.01 "HgN/A
9:00 PM77 °FPassing clouds.13 mph74%30.01 "HgN/A
Weather by CustomWeather, © 2014

See weather overviewHow to use our weather pages